| time (UTC) | temp F | wind direction | speed MPH | gust MPH | rain 1hr in | rain 24hr in | rain mn in | humidity % | barometer mb |
| 20260502224003 | 60 | 340 | 10.0 | 20.0 | 0.00 | 0.00 | 0.00 | 38 | 1016.0 |
| 20260502223004 | 61 | 312 | 5.0 | 14.0 | 0.00 | 0.00 | 0.00 | 41 | 1015.8 |
| 20260502222004 | 61 | 348 | 6.0 | 16.0 | 0.00 | 0.00 | 0.00 | 42 | 1015.8 |
| 20260502221003 | 62 | 1 | 8.0 | 18.0 | 0.00 | 0.00 | 0.00 | 40 | 1015.7 |
| 20260502220003 | 62 | 303 | 8.0 | 15.0 | 0.00 | 0.00 | 0.00 | 37 | 1015.4 |
| 20260502215003 | 62 | 339 | 8.0 | 17.0 | 0.00 | 0.00 | 0.00 | 39 | 1015.3 |
| 20260502214003 | 62 | 321 | 7.0 | 17.0 | 0.00 | 0.00 | 0.00 | 39 | 1015.1 |
| 20260502213003 | 62 | 15 | 7.0 | 16.0 | 0.00 | 0.00 | 0.00 | 38 | 1014.9 |
| 20260502212004 | 63 | 342 | 7.0 | 18.0 | 0.00 | 0.00 | 0.00 | 41 | 1014.8 |
| 20260502191003 | 65 | 303 | 7.0 | 15.0 | 0.00 | 0.00 | 0.00 | 48 | 1014.4 |
| 20260502190004 | 65 | 340 | 5.0 | 14.0 | 0.00 | 0.00 | 0.00 | 50 | 1014.2 |
| 20260502185003 | 65 | 222 | 5.0 | 14.0 | 0.00 | 0.00 | 0.00 | 51 | 1014.2 |
| 20260502184003 | 64 | 342 | 3.0 | 10.0 | 0.00 | 0.00 | 0.00 | 55 | 1014.2 |
| 20260502183004 | 63 | 305 | 6.0 | 10.0 | 0.00 | 0.00 | 0.00 | 56 | 1014.4 |
| 20260502182004 | 63 | 327 | 1.0 | 9.0 | 0.00 | 0.00 | 0.00 | 55 | 1014.4 |
| 20260502181003 | 63 | 337 | 2.0 | 8.0 | 0.00 | 0.00 | 0.00 | 58 | 1014.4 |
| 20260502151004 | 61 | 350 | 1.0 | 3.0 | 0.00 | 0.00 | 0.00 | 64 | 1015.2 |
| 20260502115003 | 52 | 228 | 0.0 | 0.0 | 0.00 | 0.00 | 0.00 | 75 | 1014.3 |
| 20260502114003 | 52 | 262 | 0.0 | 2.0 | 0.00 | 0.00 | 0.00 | 75 | 1014.0 |
| 20260502113004 | 52 | 262 | 0.0 | 0.0 | 0.00 | 0.00 | 0.00 | 78 | 1014.2 |
| 20260502112004 | 52 | 262 | 0.0 | 0.0 | 0.00 | 0.00 | 0.00 | 77 | 1014.4 |
| 20260502111003 | 52 | 262 | 0.0 | 0.0 | 0.00 | 0.00 | 0.00 | 77 | 1014.3 |
| 20260502110004 | 53 | 262 | 1.0 | 3.0 | 0.00 | 0.00 | 0.00 | 77 | 1014.1 |
| 20260502071003 | 55 | 329 | 0.0 | 3.0 | 0.00 | 0.00 | 0.00 | 71 | 1014.3 |
| 20260502070004 | 55 | 329 | 0.0 | 3.0 | 0.00 | 0.00 | 0.00 | 72 | 1014.5 |
| 20260502065004 | 56 | 329 | 2.0 | 5.0 | 0.00 | 0.00 | 0.00 | 71 | 1014.6 |
| 20260502053004 | 57 | 318 | 3.0 | 5.0 | 0.00 | 0.00 | 0.00 | 66 | 1015.0 |
| 20260502052004 | 57 | 342 | 3.0 | 9.0 | 0.00 | 0.00 | 0.00 | 65 | 1014.9 |
| 20260502051003 | 57 | 355 | 2.0 | 3.0 | 0.00 | 0.00 | 0.00 | 65 | 1014.9 |
| 20260502050004 | 58 | 348 | 1.0 | 5.0 | 0.00 | 0.00 | 0.00 | 66 | 1015.0 |
| 20260502045003 | 58 | 348 | 3.0 | 7.0 | 0.00 | 0.00 | 0.00 | 63 | 1015.0 |
| 20260502044003 | 58 | 11 | 2.0 | 7.0 | 0.00 | 0.00 | 0.00 | 63 | 1015.3 |
| 20260502032003 | 55 | 298 | 0.0 | 0.0 | 0.00 | 0.00 | 0.00 | 77 | 1016.0 |
| 20260502031003 | 56 | 298 | 0.0 | 0.0 | 0.00 | 0.00 | 0.00 | 76 | 1016.1 |
| 20260502030004 | 56 | 298 | 0.0 | 0.0 | 0.00 | 0.00 | 0.00 | 75 | 1016.0 |
| 20260502025004 | 56 | 298 | 0.0 | 0.0 | 0.00 | 0.00 | 0.00 | 75 | 1016.0 |
| 20260502024004 | 56 | 298 | 0.0 | 2.0 | 0.00 | 0.00 | 0.00 | 72 | 1015.9 |
| 20260502023004 | 56 | 298 | 1.0 | 3.0 | 0.00 | 0.00 | 0.00 | 73 | 1016.0 |
| 20260502022004 | 56 | 298 | 1.0 | 7.0 | 0.00 | 0.00 | 0.00 | 75 | 1016.1 |
| 20260502021004 | 56 | 317 | 2.0 | 3.0 | 0.00 | 0.00 | 0.00 | 75 | 1016.0 |
| 20260502020004 | 56 | 317 | 2.0 | 3.0 | 0.00 | 0.00 | 0.00 | 74 | 1015.9 |
| 20260502015003 | 57 | 317 | 0.0 | 1.0 | 0.00 | 0.00 | 0.00 | 74 | 1015.7 |
| 20260502014004 | 57 | 317 | 1.0 | 2.0 | 0.00 | 0.00 | 0.00 | 74 | 1015.4 |
| 20260502013003 | 57 | 317 | 1.0 | 3.0 | 0.00 | 0.00 | 0.00 | 74 | 1015.4 |
| 20260502012004 | 57 | 317 | 1.0 | 3.0 | 0.00 | 0.00 | 0.00 | 73 | 1015.5 |
| 20260502011003 | 58 | 317 | 2.0 | 3.0 | 0.00 | 0.00 | 0.00 | 72 | 1015.3 |
| 20260502010002 | 58 | 317 | 1.0 | 3.0 | 0.00 | 0.00 | 0.00 | 71 | 1015.1 |
| 20260502005002 | 58 | 317 | 1.0 | 3.0 | 0.00 | 0.00 | 0.00 | 71 | 1015.1 |
| 20260502004003 | 58 | 317 | 1.0 | 3.0 | 0.00 | 0.00 | 0.00 | 71 | 1015.1 |
| 20260501233002 | 60 | 287 | 3.0 | 7.0 | 0.00 | 0.00 | 0.00 | 70 | 1014.9 |
| 20260501232002 | 60 | 261 | 3.0 | 7.0 | 0.00 | 0.00 | 0.00 | 70 | 1014.6 |
| 20260501231002 | 61 | 269 | 4.0 | 7.0 | 0.00 | 0.00 | 0.00 | 70 | 1014.6 |
| 20260501230002 | 61 | 261 | 3.0 | 7.0 | 0.00 | 0.00 | 0.00 | 69 | 1014.3 |
| 20260501225002 | 62 | 255 | 3.0 | 8.0 | 0.00 | 0.00 | 0.00 | 68 | 1014.1 |